Regional Weather Roundup
Issued by NWS Newport/Morehead, NC

Current Version | Previous Version | Text Only | Print | Product List | Glossary On
Versions: 1 2 3 4 5 6 7 8 9 10 11 12 13 14 15 16 17 18 19 20 21 22 23 24 25 26 27 28 29 30 31 32 33 34 35 36 37 38 39 40 41 42 43 44 45 46 47 48 49 50
000
ASUS42 KMHX 240425
RWRMHX
WEATHER ROUNDUP FOR EASTERN NORTH CAROLINA
NATIONAL WEATHER SERVICE NEWPORT/MOREHEAD CITY NC
1100 PM EST THU NOV 23 2017

NOTE: "FAIR" INDICATES FEW OR NO CLOUDS BELOW 12,000 FEET
WITH NO SIGNIFICANT WEATHER AND/OR OBSTRUCTIONS TO VISIBILITY

NCZ015>017-031-032-045>047-102-103-240500-
NORTH COAST

CITY           SKY/WX    TMP DP  RH WIND       PRES   REMARKS
EDENTON        PTCLDY    39  37  91 CALM      30.10R
ELIZABETH CITY PTCLDY    42  37  82 N5        30.09R
KITTY HAWK     MOCLDY    45  36  70 CALM      30.06F
MANTEO         CLOUDY    44  38  78 CALM      30.08S

$$

NCZ045>047-081-094-103-104-240500-
CENTRAL COAST

CITY           SKY/WX    TMP DP  RH WIND       PRES   REMARKS
FRISCO         CLOUDY    50  42  74 N8        30.05S

$$

NCZ095-097-098-100-101-240500-
SOUTHERN COAST

CITY           SKY/WX    TMP DP  RH WIND       PRES   REMARKS
BEAUFORT       CLOUDY    47  43  86 NE8       30.06R
CEDAR ISLAND   NOT AVBL
JACKSONVILLE   NOT AVBL
PINEY ISLAND   NOT AVBL
WILMINGTON     CLOUDY    46  41  82 NE8       30.05R


$$

NCZ011>013-027>030-043-044-078>080-089-090>093-098-240500-
COASTAL PLAIN

CITY           SKY/WX    TMP DP  RH WIND       PRES   REMARKS
AHOSKIE        PTCLDY    30  30 100 CALM      30.09F
CLINTON        CLOUDY    41  38  90 CALM      30.08R
ELIZABETHTOWN  NOT AVBL
GOLDSBORO      PTCLDY    41  35  80 CALM      30.06R
GREENVILLE     CLOUDY    37  37 100 CALM      30.10R
HAVELOCK       NOT AVBL
KENANSVILLE    CLOUDY    39  37  93 CALM      30.07R
KINSTON        CLOUDY    38  36  93 CALM      30.08S
NEW BERN       CLOUDY    44  40  85 NE5       30.07F
RICHLANDS      CLOUDY    43  39  86 NE6       30.06S
ROCKY MOUNT    CLOUDY    32  32 100 CALM      30.08F
WASHINGTON     CLOUDY    39  36  86 NE3       30.08S
WHITEVILLE     MOCLDY    43  38  80 CALM      30.04R

$$

AMZ130-135-150-152-154-156-158-170-250-252-270-ANZ085-086-088-633-658-670-240500-
MARINE OBSERVATIONS

STATION/POSITION TIME  TEMP    WIND        PRES    WAVE   SWELL
                       AIR SEA DIR/SP/G            HT/PER HT/PER
                 (UTC) (F)     (DEG/KT/KT) (MB)    (FT/S) (FT/S)
CHESAPEAKE LIGHT NOT AVBL
64 E VA BEACH    0350   47 59  350/  6/ 10 1018.7    5/ 9   5/ 9
DUCK             0400   47 58   10/  3/  6 1018.0
2 E DUCK         0400      60                N/A     4/10   2/11
OREGON INLET     0400   48 58   30/  6/  9 1018.0
13E OREGON INLT  0348      63                N/A     5/ 9   5/ 9
HATTERAS CG      0400   50 58   20/ 13/ 15 1017.0
DIAMOND BUOY     0410   56 72   20/ 14/ 17 1017.1
CAPE LOOKOUT     0400           20/  9/ 12 1017.4
BEAUFORT LAB     0400   48 59   20/  6/  9 1017.6
30 SE NEW RVR IN 0408   56 67   60/ 14/ 19 1016.8
30 SE NEW RVR IN 0400      67                N/A     5/ 9   2/11
27 SE WRIGHTSVLE 0408   59 72   70/ 17/ 23 1015.8
5 SE WRIGHTSVLE  0408   53 63   50/ 12/ 17 1016.4
225 S CAPE HAT   0350   71 77   70/ 19/ 25 1011.6    9/11   5/11
41 SE CHARLESTON 0410   66 75   40/ 19/ 27 1013.4

$$



USA.gov is the U.S. government's official web portal to all federal, state and local government web resources and services.